Regional Weather Roundup
Issued by NWS

Home | Current Version | Previous Version | Graphics & Text | Print | Product List | Glossary On
Versions: 1 2 3 4 5 6 7 8 9 10 11 12 13 14 15 16 17 18 19 20 21 22 23 24 25 26 27 28 29 30 31 32 33 34 35 36 37 38 39 40 41 42 43 44 45 46 47 48 49 50
000
ASUS43 KIND 161259
RWRIN

WEATHER ROUNDUP FOR INDIANA
NATIONAL WEATHER SERVICE INDIANAPOLIS IN
900 AM EDT WED APR 16 2014

NOTE: "FAIR" INDICATES FEW OR NO CLOUDS BELOW 12,000 FEET WITH NO
SIGNIFICANT WEATHER AND/OR OBSTRUCTIONS TO VISIBILITY.

* - STATION DOES NOT REPORT WEATHER SUCH AS PRECIPITATION OR FOG.

+ - STATION NOT QUALITY CONTROLLED BY THE NATIONAL WEATHER SERVICE.
    USE DATA WITH CAUTION...ESPECIALLY DEWPOINT AND RELATIVE
    HUMIDITY OBSERVATIONS.

INZ001>003-010>013-019-020-161400-
NORTHWEST INDIANA

CITY           SKY/WX    TMP DP  RH WIND       PRES   REMARKS
GARY /AIRPORT/ MOSUNNY   34  21  60 SE9       30.33R WCI  26
VALPARAISO     SUNNY     30  21  69 SE9       30.34R WCI  22

$$

LMZ046-743>745-161400-
SOUTHERN LAKE MICHIGAN

STATION/POSITION TIME  TEMP WIND        PRES
                       AIR  DIR/SP/G
                 (UTC) (F)  (DEG/KT/KT) (MB)
MICHIGAN CITY    1200   30  140/ 11/ 14   N/A

$$

INZ004-005-014>016-021>024-161400-
NORTH CENTRAL INDIANA

CITY           SKY/WX    TMP DP  RH WIND       PRES   REMARKS
ELKHART        SUNNY     30  16  55 S9        30.38R WCI  22
GOSHEN         SUNNY     32  15  49 SE14      30.37R WCI  22
SOUTH BEND     SUNNY     32  16  51 S9        30.36R WCI  24

$$

INZ006>009-017-018-025>027-161400-
NORTHEAST INDIANA

CITY           SKY/WX    TMP DP  RH WIND       PRES   REMARKS
ANGOLA *+      SUNNY     28  16  59 S7        30.38R WCI  21
FORT WAYNE     MOSUNNY   31  18  58 SE8       30.40R WCI  23

$$

INZ028-029-035-036-043>045-051>053-161400-
WEST CENTRAL INDIANA

CITY           SKY/WX    TMP DP  RH WIND       PRES   REMARKS
GREENCASTLE +  SUNNY     32  21  64 SE12      30.36R WCI  23
LAFAYETTE      SUNNY     32  20  61 SE13G20   30.36R WCI  22
TERRE HAUTE    SUNNY     34  22  61 SE10      30.36R WCI  26

$$

INZ030>032-037>040-046>048-054>057-064-065-161400-
CENTRAL INDIANA

CITY           SKY/WX    TMP DP  RH WIND       PRES   REMARKS
ANDERSON       SUNNY     30  18  59 SE12G17   30.40  WCI  21
COLUMBUS       SUNNY     30  23  74 SE7       30.40R WCI  23
INDIANAPOLIS   MOSUNNY   31  19  61 SE13      30.36R WCI  21
-EAGLE CREEK   SUNNY     32  17  54 SE12      30.37R WCI  23
KOKOMO *+      SUNNY     32  19  59 S15       30.37R WCI  22
MT COMFORT *+  SUNNY     32  21  64 SE10      30.39R WCI  24
SHELBYVILLE    SUNNY     34  19  54 SE10      30.39R WCI  26

$$

INZ033-034-041-042-049-050-058-059-161400-
EAST CENTRAL INDIANA

CITY           SKY/WX    TMP DP  RH WIND       PRES   REMARKS
MUNCIE         SUNNY     32  14  47 S9        30.39R WCI  24

$$

INZ060-061-067>069-081>083-085>088-161400-
SOUTHWEST INDIANA

CITY           SKY/WX    TMP DP  RH WIND       PRES   REMARKS
EVANSVILLE     SUNNY     36  23  59 SE6       30.36R
HUNTINGBURG *+ SUNNY     36  21  55 SE13      30.37R

$$

INZ062-063-066-070>080-084-089>092-161400-
SOUTH CENTRAL AND SOUTHEAST INDIANA

CITY           SKY/WX    TMP DP  RH WIND       PRES   REMARKS
BLOOMINGTON    SUNNY     33  20  58 SE9       30.36R WCI  25

$$




USA.gov is the U.S. government's official web portal to all federal, state and local government web resources and services.